Regional Weather Roundup
Issued by NWS

Home | Current Version | Previous Version | Graphics & Text | Print | Product List | Glossary On
Versions: 1 2 3 4 5 6 7 8 9 10 11 12 13 14 15 16 17 18 19 20 21 22 23 24 25 26 27 28 29 30 31 32 33 34 35 36 37 38 39 40 41 42 43 44 45 46 47 48 49 50
878
ASUS43 KIND 110059
RWRIN

WEATHER ROUNDUP FOR INDIANA
NATIONAL WEATHER SERVICE INDIANAPOLIS IN
800 PM EST WED FEB 10 2016

NOTE: "FAIR" INDICATES FEW OR NO CLOUDS BELOW 12,000 FEET WITH NO
SIGNIFICANT WEATHER AND/OR OBSTRUCTIONS TO VISIBILITY.

* - STATION DOES NOT REPORT WEATHER SUCH AS PRECIPITATION OR FOG.

+ - STATION NOT QUALITY CONTROLLED BY THE NATIONAL WEATHER SERVICE.
    USE DATA WITH CAUTION...ESPECIALLY DEWPOINT AND RELATIVE
    HUMIDITY OBSERVATIONS.

INZ001>003-010>013-019-020-110200-
NORTHWEST INDIANA

CITY           SKY/WX    TMP DP  RH WIND       PRES   REMARKS
GARY /AIRPORT/ MOCLDY    18   1  49 W9        30.11R WCI   6
MONTICELLO +   CLOUDY    17   4  56 W6        30.09R WCI   8
RENSSELAER +   PTCLDY    18   5  57 NW3       30.11R

$$

LMZ046-743>745-110200-
SOUTHERN LAKE MICHIGAN

STATION/POSITION TIME  TEMP    WIND        PRES    WAVE
                       AIR SEA DIR/SP/G            HT
                 (UTC) (F)     (DEG/KT/KT) (MB)    (FT)
BURNS HARBOR     0000   18     330/  9/ 15 1019.3R
MICHIGAN CITY    0000   17     290/ 11/ 14   N/A

$$

INZ004-005-014>016-021>024-110200-
NORTH CENTRAL INDIANA

CITY           SKY/WX    TMP DP  RH WIND       PRES   REMARKS
GOSHEN         CLOUDY    14   7  73 W17       30.05R WCI  -3
SOUTH BEND     LGT SNOW  13  10  88 W10       30.07R VSB 1   WCI   0

$$

INZ006>009-017-018-025>027-110200-
NORTHEAST INDIANA

CITY           SKY/WX    TMP DP  RH WIND       PRES   REMARKS
ANGOLA *+      CLOUDY    14  10  85 W12       29.98R WCI   0
FORT WAYNE     CLOUDY    17   8  67 W16       30.05R WCI   2

$$

INZ028-029-035-036-043>045-051>053-110200-
WEST CENTRAL INDIANA

CITY           SKY/WX    TMP DP  RH WIND       PRES   REMARKS
GREENCASTLE +  PTCLDY    18   3  53 W5        30.11R WCI  11
LAFAYETTE      CLEAR     12   5  73 W5        30.12R WCI   4
TERRE HAUTE    CLOUDY    20   7  57 W7        30.13S WCI  11

$$

INZ030>032-037>040-046>048-054>057-064-065-110200-
CENTRAL INDIANA

CITY           SKY/WX    TMP DP  RH WIND       PRES   REMARKS
FRANKFORT +    MOCLDY    12   1  61 W6        30.11R WCI   3
GREENWOOD *+   PTCLDY    16   7  67 W5        30.10  WCI   9
INDIANAPOLIS   CLOUDY    16   6  65 W6        30.09S WCI   7
-EAGLE CREEK   PTCLDY    15   6  67 W5        30.09S WCI   8
KOKOMO *+      CLOUDY    16   9  73 W8        30.09R WCI   5
MT COMFORT *+  CLOUDY    14   7  73 W9        30.09S WCI   2
SHELBYVILLE    CLOUDY    16   5  62 W7        30.10R WCI   6

$$

INZ033-034-041-042-049-050-058-059-110200-
EAST CENTRAL INDIANA

CITY           SKY/WX    TMP DP  RH WIND       PRES   REMARKS
MUNCIE         LGT SNOW  15   8  73 W13       30.08R WCI   1

$$

INZ060-061-067>069-081>083-085>088-110200-
SOUTHWEST INDIANA

CITY           SKY/WX    TMP DP  RH WIND       PRES   REMARKS
EVANSVILLE     FLURRIES  23  16  74 W12       30.19R WCI  12
HUNTINGBURG *+ CLOUDY    21  14  73 W15       30.16R WCI   8

$$

INZ062-063-066-070>080-084-089>092-110200-
SOUTH CENTRAL AND SOUTHEAST INDIANA

CITY           SKY/WX    TMP DP  RH WIND       PRES   REMARKS
BLOOMINGTON    MOCLDY    18   7  62 W6        30.11R WCI  10
MADISON *+     PTCLDY    18   5  57 W3        30.13S
SEYMOUR +      PTCLDY    19   9  63 CALM      30.13R

$$





USA.gov is the U.S. government's official web portal to all federal, state and local government web resources and services.